Temperature
5 4 4 4 4 5 5 4 4 5 6 6 5 6 7 7 7 6 7 7 8 8 9 9 9 10 10 10 10 10 10 10 10 10 11 11 11 11 11 11 11 11 11 11
4 4 5 5 5 5 4 4 4 4 6 6 5 5 6 6 6 7 7 7 8 8 9 9 9 9 9 10 10 10 10 10 10 10 10 10 11 11 11 11 11 11 11 11
4 5 6 5 5 4 4 4 4 4 4 5 4 5 6 6 6 7 7 7 7 8 8 8 9 9 9 9 9 9 10 10 10 10 10 10 10 10 10 10 10 11 11 11
4 4 5 5 5 5 4 5 5 4 3 3 4 4 5 5 5 6 6 7 7 8 8 8 8 9 9 9 9 9 9 10 10 10 9 10 10 10 10 10 10 10 10 10
4 4 5 5 5 5 4 5 4 4 3 3 3 3 5 5 5 6 5 6 7 7 7 8 8 8 9 9 9 9 9 10 10 10 9 9 9 10 10 10 10 10 10 10
3 4 4 5 5 5 5 4 3 3 2 3 3 3 4 4 5 5 5 6 7 7 7 7 8 8 8 9 9 9 9 9 9 9 9 9 9 9 9 9 9 10 10 10
3 4 4 5 4 4 4 3 3 2 1 2 4 3 4 5 5 5 5 6 6 7 7 7 7 7 8 8 8 8 9 9 9 9 9 9 9 9 9 9 9 9 9 10
3 4 4 4 4 4 3 3 3 3 2 3 3 3 4 5 5 5 6 6 6 6 6 7 7 7 7 7 8 8 8 8 8 8 9 9 9 9 9 9 9 9 9 10
2 3 4 4 4 4 3 3 3 2 2 2 3 3 3 5 4 4 5 5 6 6 6 6 6 7 7 7 7 8 8 8 8 8 8 8 8 8 8 9 9 9 9 9
2 2 3 3 4 4 3 3 2 2 2 2 3 3 4 4 4 4 4 4 5 6 6 6 6 6 7 7 7 7 7 7 7 8 8 8 8 8 8 8 8 9 9 9
2 2 2 2 3 3 2 2 2 1 2 2 3 4 4 4 4 3 3 4 5 5 5 5 6 6 6 6 7 7 7 7 7 7 7 7 7 7 8 8 8 8 9 9
1 1 1 1 2 3 2 2 1 1 1 1 1 4 5 4 3 3 3 4 5 5 5 5 5 5 6 6 6 6 6 6 6 6 7 7 7 7 7 7 8 8 8 8
1 1 1 2 2 1 1 1 1 1 1 1 1 3 4 3 3 4 4 4 4 5 5 5 5 5 5 5 6 6 6 6 6 6 6 6 6 7 7 7 7 8 8 8
2 1 1 3 2 1 0 1 1 1 1 1 1 3 4 4 4 4 4 4 4 4 4 4 4 5 5 5 5 5 5 5 5 5 5 5 6 6 6 7 7 7 8 8
1 1 -0 1 1 1 1 2 1 1 1 1 2 2 4 4 3 3 4 4 3 4 4 4 4 4 4 4 5 5 5 5 5 4 5 5 5 5 6 6 7 7 7 7
0 1 0 0 1 1 1 2 2 2 2 2 2 2 3 3 3 3 3 3 3 3 4 4 4 4 4 4 4 4 4 4 4 4 4 4 5 5 5 6 6 6 7 7
-0 -0 0 1 1 1 1 2 2 2 2 1 2 3 3 2 2 2 3 3 3 3 4 4 4 4 4 4 3 4 4 4 4 3 4 4 4 4 5 5 5 6 6 6
-0 -0 0 0 -1 1 3 2 2 2 2 2 2 2 2 2 3 3 3 3 3 3 3 3 3 3 3 3 3 3 3 3 3 3 3 3 3 4 4 5 5 5 6 6
0 0 0 -0 -1 -0 1 2 1 1 1 2 1 2 2 2 2 2 4 4 3 3 3 3 3 3 3 3 3 3 3 3 3 3 3 3 3 3 4 4 5 5 5 5
-1 -0 0 -0 -0 0 2 2 1 1 1 2 1 1 1 1 0 1 4 4 3 3 3 3 2 2 3 2 2 2 2 2 2 2 2 3 3 3 3 4 4 4 5 5
-1 -1 -0 -0 -0 0 1 1 1 1 1 2 2 1 1 0 1 3 3 3 3 3 3 2 2 2 2 2 2 2 2 2 2 2 2 2 2 2 3 3 4 4 4 5
-1 -1 -2 -1 -0 1 1 0 1 1 2 2 3 2 2 2 2 2 3 3 3 2 2 2 2 2 2 2 2 1 1 1 1 1 2 2 2 2 2 3 3 4 4 4
-1 -1 -1 -1 1 1 1 2 2 3 2 2 3 3 2 2 2 2 2 2 2 2 2 2 2 2 2 1 1 1 1 1 1 1 1 1 2 2 2 2 3 3 3 3
-2 -2 -2 -2 -1 -0 1 2 2 2 2 2 2 2 2 1 1 1 1 1 1 1 1 1 1 1 1 1 1 1 1 1 1 1 1 1 2 2 2 2 2 2 3 3
-2 -3 -3 -2 -1 -1 1 2 2 2 2 2 2 1 1 1 1 1 1 1 1 1 1 1 1 1 1 1 1 1 1 1 1 1 1 1 1 2 2 2 2 2 2 2
-2 -2 -2 -0 -0 -1 0 2 2 1 1 1 1 1 1 1 0 0 0 0 0 0 0 0 0 0 0 0 0 0 0 0 0 0 0 1 1 1 1 2 2 2 2 2
Wind_Speed
1 1 4 7 8 7 5 8 13 13 10 9 15 21 20 14 9 10 11 10 10 10 9 7 7 7 6 6 8 9 8 8 7 5 5 5 6 6 6 6 8 10 10 11
1 5 8 5 6 7 8 11 12 12 7 9 14 19 16 11 8 8 10 11 10 9 8 7 6 4 5 6 7 8 8 8 8 7 6 5 5 5 5 6 7 9 10 11
6 5 3 5 5 6 9 9 10 11 12 6 8 12 9 7 6 7 8 8 8 8 8 8 6 5 5 6 6 7 8 9 8 7 4 3 3 3 4 5 6 8 10 11
7 6 4 5 7 6 8 8 9 10 9 7 2 8 9 7 8 8 9 9 9 8 7 7 6 5 5 7 6 6 7 7 7 7 7 7 6 6 6 6 6 7 9 10
6 3 4 6 7 6 7 6 8 9 7 8 4 6 10 4 7 9 9 9 8 7 6 7 6 6 6 6 5 5 6 6 6 7 9 8 8 7 5 5 7 7 8 10
8 5 5 5 3 4 4 5 5 1 0 5 5 5 9 5 7 8 8 7 7 7 6 6 5 4 4 4 4 5 5 5 5 6 8 9 10 8 7 7 7 7 6 7
6 5 4 2 1 1 2 3 5 5 3 6 3 5 10 8 7 7 8 8 8 7 6 6 5 5 4 4 4 4 5 5 5 5 7 8 9 9 10 9 8 7 7 7
4 6 4 3 4 3 3 4 3 4 5 6 4 7 8 7 7 6 6 7 7 6 5 5 5 5 4 4 4 4 4 5 5 5 6 7 8 7 7 8 8 9 8 9
4 6 3 3 3 4 3 4 4 3 4 6 7 8 9 6 7 7 6 6 6 7 6 6 6 5 4 4 4 4 4 4 5 4 4 5 7 7 7 8 8 8 8 8
5 6 5 3 0 3 4 4 3 2 3 6 7 7 6 8 8 8 8 7 7 6 6 6 6 6 5 5 5 4 4 5 4 4 4 4 6 6 6 6 7 8 8 7
4 4 5 2 5 6 3 3 3 3 3 4 6 8 5 7 8 8 7 6 6 6 6 6 6 6 6 5 4 4 4 4 3 4 4 4 4 4 5 6 7 7 7 7
4 3 5 8 5 3 5 6 5 4 5 5 5 10 5 5 6 5 6 6 6 6 6 5 5 6 5 5 4 4 4 4 4 4 4 4 4 4 4 5 6 6 7 7
4 3 3 6 3 1 2 4 5 3 3 5 7 10 4 6 8 7 6 6 6 6 6 5 5 5 5 5 5 4 4 4 4 4 4 4 3 3 4 5 5 5 6 6
4 5 7 9 7 4 6 6 5 6 6 8 12 17 17 15 12 11 8 7 6 6 6 5 5 5 5 5 5 5 5 4 4 4 4 4 4 5 5 5 3 4 5 6
4 6 8 12 11 8 11 13 10 12 12 13 16 18 21 16 11 9 8 7 6 6 6 6 5 5 5 5 5 5 4 4 4 4 4 4 5 5 5 4 3 2 4 5
4 5 4 9 9 11 15 16 15 16 15 17 19 22 19 13 9 9 8 7 7 7 7 7 6 5 5 5 6 5 4 4 3 4 4 4 4 5 4 4 2 2 2 3
5 4 3 8 6 5 11 11 13 9 9 9 14 16 12 9 9 8 7 7 7 8 7 6 5 5 6 5 5 5 5 4 4 4 5 5 5 5 5 4 2 2 2 2
7 6 4 4 2 9 9 4 7 9 12 11 11 11 9 9 8 7 7 7 6 5 5 6 5 5 5 5 5 5 4 4 5 5 6 6 5 5 4 4 2 2 2 2
11 9 5 4 6 10 9 5 5 6 9 8 10 11 10 8 6 7 6 5 5 5 5 5 5 5 5 6 5 4 4 4 5 5 6 6 6 5 4 4 4 3 2 2
6 8 7 5 6 8 8 4 2 2 7 6 5 7 7 4 4 7 6 4 4 5 4 4 5 4 5 6 4 4 4 4 5 6 6 6 5 5 5 4 4 3 2 3
4 5 9 10 9 9 8 3 4 3 7 4 3 5 5 4 7 8 6 5 5 5 5 4 4 4 5 5 3 3 4 5 6 6 6 6 6 5 4 4 4 4 2 2
8 7 7 6 7 10 4 6 7 8 4 4 5 5 6 8 9 8 7 6 5 6 6 5 4 5 5 3 2 3 5 6 5 5 5 6 6 5 4 3 4 4 2 1
9 9 6 9 9 6 5 7 6 4 5 7 6 7 7 8 8 8 7 7 6 6 6 5 4 6 5 3 2 4 6 5 4 5 5 6 6 5 4 3 3 3 1 0
6 5 6 8 11 11 9 8 8 8 9 9 8 8 6 8 9 9 8 7 7 7 6 5 4 5 6 5 4 5 5 4 3 4 5 5 5 4 4 3 2 2 1 1
8 7 7 10 11 8 9 10 11 10 8 8 8 8 8 8 9 8 8 8 7 7 6 5 5 5 6 5 5 5 4 3 3 4 4 4 4 3 4 3 2 2 2 2
8 9 10 12 10 8 8 7 7 8 9 9 9 9 8 7 9 8 8 7 7 7 6 5 5 6 6 5 6 5 4 2 2 3 4 3 3 3 3 3 3 3 1 3
Wind_Direction
66 97 232 228 215 229 252 260 273 275 278 281 269 276 284 290 285 279 281 278 274 270 270 275 274 272 265 254 245 237 233 226 207 202 209 220 218 209 208 211 207 202 200 199
26 246 239 233 230 243 252 268 273 284 286 285 279 278 277 273 265 266 274 277 277 282 293 292 282 271 270 257 250 251 241 226 212 209 212 227 214 208 212 211 210 209 205 202
226 248 237 227 247 257 258 246 259 279 311 293 294 288 270 273 268 280 285 282 277 271 275 282 281 266 274 272 257 255 247 226 216 210 213 228 208 198 211 214 216 216 211 206
254 256 245 246 247 226 267 247 257 282 304 296 330 293 284 277 287 290 294 291 283 280 276 275 271 268 272 270 265 261 248 228 220 208 207 210 216 223 227 221 222 223 216 211
262 248 236 243 239 212 248 276 271 273 262 281 251 248 284 300 287 289 290 288 282 280 278 273 263 260 264 271 270 266 255 238 230 218 210 212 220 226 223 217 218 227 223 214
254 258 231 231 251 219 270 315 302 314 244 271 243 223 280 265 260 284 289 295 292 284 283 279 270 272 278 288 273 259 256 254 247 230 217 218 220 218 217 222 220 225 226 220
299 267 233 207 269 311 48 26 349 343 337 256 247 246 259 266 268 266 283 294 298 291 284 286 290 286 284 290 284 272 254 255 256 248 234 224 223 219 216 220 221 225 228 227
299 287 231 201 196 201 208 158 178 257 266 289 283 248 260 275 286 285 285 289 299 304 303 297 286 283 275 281 285 280 267 261 257 253 250 234 230 226 223 223 225 224 227 223
219 267 285 221 217 165 174 204 202 206 274 278 268 277 295 297 309 309 308 311 306 303 304 303 306 307 294 281 276 273 268 274 269 256 253 253 242 234 231 229 227 229 229 225
183 263 277 291 222 225 205 172 130 173 265 276 281 272 270 298 304 312 313 309 309 313 312 312 314 315 302 284 275 273 264 265 270 278 268 274 256 239 235 232 234 232 226 222
173 226 295 312 208 209 170 167 177 197 215 235 279 275 245 265 286 294 298 298 303 309 307 306 308 304 302 304 289 283 286 286 289 281 277 273 274 267 248 239 239 231 220 216
187 180 263 257 249 207 194 194 174 204 248 229 256 276 277 266 285 291 299 308 308 304 302 305 305 308 311 305 300 295 292 292 293 289 284 283 277 279 266 257 253 229 219 215
164 164 296 319 338 16 235 218 202 208 226 238 252 272 301 320 310 307 305 308 306 309 314 316 313 314 313 309 310 307 299 292 299 299 293 290 288 287 284 272 252 227 214 212
173 191 211 236 246 229 257 256 223 206 234 253 248 266 288 298 299 302 304 302 303 307 310 312 312 314 315 313 315 315 314 309 312 315 308 306 305 294 290 286 258 231 212 208
176 231 236 253 261 256 258 262 247 231 235 247 264 269 279 286 290 293 295 300 307 306 307 306 303 303 311 320 321 316 313 317 319 320 320 315 313 310 307 307 275 248 225 217
194 240 247 269 262 259 268 266 256 250 248 249 263 273 275 280 282 284 287 290 295 299 300 300 302 309 315 316 316 316 316 319 317 319 317 317 323 322 315 311 295 279 246 228
202 206 242 272 286 296 269 252 241 237 231 233 252 263 282 294 292 282 281 281 281 284 289 294 298 298 299 302 303 304 307 317 323 323 324 326 328 323 318 314 308 297 261 234
208 207 230 266 320 253 254 222 225 239 252 245 253 268 278 278 288 290 277 272 276 279 287 292 294 297 297 299 303 307 315 325 325 327 327 327 330 324 319 315 301 296 277 226
211 213 225 225 248 270 283 255 206 221 265 252 250 266 277 290 312 303 282 264 257 270 276 281 283 287 299 305 306 312 319 325 327 325 322 322 325 322 318 313 303 290 289 265
196 207 219 219 232 250 256 252 193 148 282 270 240 264 286 314 310 294 297 287 285 288 288 290 294 300 303 303 306 313 314 322 319 316 314 316 318 313 308 307 303 302 286 262
173 204 222 231 242 259 257 218 128 193 254 282 248 262 271 248 251 276 292 290 287 289 288 289 290 292 290 296 302 302 307 303 301 308 314 316 318 313 307 313 314 311 292 273
192 197 210 210 232 253 228 148 187 228 258 278 279 273 271 269 276 285 285 284 285 288 288 284 284 287 289 290 290 293 293 294 306 315 316 316 318 316 320 328 328 323 300 252
206 201 202 208 228 246 202 209 232 243 261 271 272 278 278 278 283 287 284 279 278 276 280 281 277 288 296 288 271 275 285 298 311 317 315 315 319 319 323 327 326 326 303 204
239 213 217 247 256 257 256 256 258 252 254 265 269 276 276 273 277 280 280 278 279 279 278 279 278 285 293 294 286 276 284 297 303 307 312 319 324 326 329 326 317 309 295 270
224 196 220 249 263 278 267 254 256 259 261 267 272 268 265 268 274 274 276 277 276 277 278 273 265 268 277 287 289 285 286 294 303 307 313 319 324 326 328 327 312 298 275 264
216 208 221 247 242 233 252 255 251 251 259 262 269 275 271 259 265 272 273 273 273 274 273 271 269 270 277 285 288 289 288 282 289 304 308 309 318 318 320 324 336 324 301 316
Height
1476 1479 1478 1476 1476 1475 1476 1476 1473 1464 1457 1457 1449 1440 1431 1428 1427 1424 1421 1418 1416 1414 1413 1414 1414 1413 1413 1413 1413 1414 1416 1417 1418 1419 1421 1422 1424 1426 1428 1430 1433 1436 1439 1441
1478 1477 1472 1472 1473 1474 1474 1475 1469 1460 1454 1453 1445 1435 1426 1423 1422 1419 1417 1414 1412 1409 1408 1408 1409 1408 1408 1408 1409 1409 1410 1411 1412 1414 1416 1417 1419 1420 1423 1425 1428 1431 1433 1436
1476 1471 1468 1470 1470 1472 1470 1470 1465 1461 1454 1450 1447 1431 1423 1418 1417 1415 1413 1410 1408 1407 1406 1405 1404 1404 1404 1403 1404 1404 1405 1406 1408 1410 1411 1412 1414 1415 1417 1419 1421 1424 1427 1429
1473 1469 1468 1468 1467 1468 1466 1461 1460 1458 1461 1457 1452 1443 1422 1418 1415 1412 1409 1406 1404 1403 1402 1401 1401 1400 1399 1399 1400 1401 1401 1401 1403 1404 1405 1406 1407 1408 1410 1413 1415 1418 1421 1423
1469 1466 1466 1465 1463 1463 1462 1458 1458 1457 1459 1459 1451 1452 1425 1419 1414 1409 1406 1403 1401 1400 1399 1398 1398 1397 1397 1396 1397 1397 1397 1397 1399 1400 1400 1401 1402 1404 1406 1408 1410 1412 1414 1416
1467 1464 1463 1461 1459 1460 1459 1459 1457 1458 1461 1459 1446 1449 1429 1419 1411 1407 1404 1401 1399 1398 1397 1396 1395 1395 1394 1394 1394 1394 1394 1393 1393 1394 1394 1395 1397 1398 1400 1402 1404 1405 1407 1409
1466 1461 1459 1459 1460 1460 1461 1465 1466 1466 1468 1456 1443 1442 1426 1410 1407 1405 1403 1400 1398 1396 1395 1393 1392 1391 1390 1390 1390 1390 1390 1389 1389 1389 1389 1390 1391 1393 1394 1396 1398 1399 1400 1402
1471 1464 1457 1457 1457 1459 1461 1464 1469 1470 1465 1452 1443 1436 1417 1407 1403 1401 1399 1398 1396 1394 1392 1391 1390 1389 1387 1387 1387 1387 1387 1386 1386 1385 1385 1386 1387 1388 1389 1391 1392 1393 1395 1396
1471 1464 1456 1455 1454 1457 1460 1462 1461 1465 1463 1460 1443 1431 1415 1404 1401 1398 1397 1395 1393 1392 1391 1389 1388 1386 1385 1385 1384 1384 1383 1383 1382 1381 1381 1381 1381 1382 1383 1385 1386 1387 1389 1391
1466 1466 1457 1455 1455 1455 1456 1458 1463 1464 1463 1455 1441 1432 1418 1406 1402 1397 1395 1393 1392 1390 1388 1387 1385 1384 1384 1383 1382 1382 1381 1380 1378 1377 1377 1377 1377 1377 1378 1379 1380 1381 1383 1385
1463 1466 1459 1456 1454 1453 1456 1458 1458 1460 1459 1456 1444 1422 1407 1405 1400 1398 1395 1392 1391 1390 1389 1386 1384 1384 1382 1381 1380 1379 1377 1376 1375 1374 1374 1373 1372 1372 1373 1373 1374 1376 1377 1380
1462 1465 1464 1456 1449 1448 1450 1452 1455 1460 1458 1456 1449 1422 1402 1400 1397 1396 1394 1392 1390 1389 1387 1385 1384 1382 1380 1379 1377 1376 1375 1373 1371 1370 1370 1369 1368 1368 1368 1368 1369 1370 1372 1374
1459 1464 1463 1452 1453 1453 1451 1449 1450 1452 1452 1451 1444 1419 1400 1400 1396 1395 1393 1391 1389 1387 1385 1383 1381 1380 1378 1376 1374 1373 1371 1370 1368 1368 1366 1365 1364 1363 1363 1363 1363 1365 1367 1369
1454 1458 1458 1451 1446 1450 1451 1447 1447 1448 1447 1442 1432 1414 1401 1398 1395 1393 1392 1390 1388 1386 1384 1381 1379 1377 1376 1374 1372 1370 1369 1367 1366 1364 1363 1361 1360 1359 1358 1358 1358 1360 1362 1364
1451 1452 1453 1447 1443 1444 1442 1438 1439 1439 1435 1432 1416 1410 1399 1395 1394 1392 1390 1388 1386 1384 1382 1380 1378 1377 1375 1372 1370 1368 1366 1364 1363 1362 1360 1358 1357 1356 1355 1354 1354 1356 1357 1359
1449 1449 1448 1444 1439 1439 1434 1427 1426 1425 1423 1420 1413 1405 1394 1392 1391 1389 1388 1386 1384 1382 1380 1378 1376 1373 1371 1370 1368 1366 1364 1362 1362 1359 1357 1356 1354 1353 1352 1351 1352 1352 1353 1354
1446 1447 1446 1440 1437 1435 1428 1417 1415 1414 1411 1411 1407 1398 1391 1391 1389 1387 1385 1383 1382 1380 1378 1376 1374 1372 1371 1369 1367 1364 1362 1361 1359 1357 1355 1353 1352 1350 1349 1349 1349 1350 1350 1351
1440 1442 1442 1438 1441 1433 1412 1407 1406 1406 1403 1402 1398 1393 1391 1389 1386 1384 1383 1381 1379 1378 1376 1375 1373 1371 1369 1367 1365 1362 1360 1358 1356 1354 1352 1351 1349 1348 1347 1347 1346 1346 1347 1348
1431 1434 1436 1437 1437 1424 1410 1404 1404 1404 1400 1394 1393 1390 1388 1386 1384 1381 1380 1378 1377 1376 1374 1372 1371 1369 1366 1364 1362 1360 1358 1356 1354 1352 1350 1348 1347 1346 1345 1344 1343 1344 1344 1345
1428 1429 1431 1431 1430 1420 1404 1399 1397 1401 1400 1390 1389 1388 1387 1386 1388 1381 1377 1376 1374 1373 1372 1370 1368 1366 1364 1362 1360 1357 1355 1354 1351 1350 1348 1346 1345 1343 1342 1341 1340 1340 1341 1341
1427 1428 1426 1424 1421 1411 1399 1396 1398 1404 1396 1387 1386 1386 1385 1385 1383 1378 1375 1374 1372 1371 1369 1367 1365 1363 1362 1360 1358 1355 1353 1352 1350 1349 1347 1344 1343 1341 1340 1339 1338 1337 1337 1339
1419 1422 1423 1421 1416 1407 1393 1395 1396 1392 1386 1385 1384 1383 1382 1379 1377 1375 1373 1371 1369 1368 1366 1364 1362 1360 1359 1357 1355 1353 1351 1350 1348 1346 1344 1342 1340 1338 1337 1336 1335 1335 1335 1336
1410 1408 1408 1407 1400 1391 1389 1388 1386 1385 1384 1382 1381 1379 1378 1375 1373 1371 1369 1367 1366 1364 1363 1361 1359 1357 1355 1355 1353 1350 1349 1347 1345 1344 1341 1339 1337 1336 1335 1333 1332 1332 1333 1334
1402 1400 1401 1398 1390 1386 1384 1383 1382 1381 1380 1378 1377 1375 1373 1371 1369 1367 1365 1363 1362 1360 1359 1357 1355 1353 1352 1351 1350 1348 1346 1345 1343 1341 1339 1337 1334 1333 1332 1332 1331 1331 1331 1332
1393 1395 1395 1390 1383 1381 1378 1377 1376 1375 1374 1373 1372 1371 1369 1367 1364 1363 1360 1359 1357 1356 1354 1353 1351 1350 1348 1347 1346 1345 1343 1341 1340 1338 1336 1335 1333 1331 1330 1330 1330 1330 1330 1331
1383 1385 1386 1379 1375 1376 1372 1371 1371 1370 1369 1368 1366 1364 1363 1362 1360 1358 1356 1354 1353 1351 1350 1348 1347 1346 1344 1343 1342 1341 1340 1338 1337 1335 1334 1332 1331 1330 1329 1328 1327 1328 1329 1330